Weather History for KSDA - December, 2014

Change the Weather History Date:

Thursday, December 25, 2014

  Actual Average Record
Temperature  
Mean Temperature 40 °F -  
Max Temperature 51 °F 32 °F 58 °F (1954)
Min Temperature 30 °F 12 °F -18 °F (1983)
Degree Days  
Heating Degree Days 24    
Moisture  
Dew Point 31 °F    
Average Humidity 73    
Maximum Humidity 100    
Minimum Humidity 50    
Precipitation  
Precipitation 0.00 in - - ()
Sea Level Pressure  
Sea Level Pressure 29.69 in    
Wind  
Wind Speed 12 mph (SSE)    
Max Wind Speed 25 mph    
Max Gust Speed 33 mph    
Visibility 10 miles    
Events      
Averages and records for this station are not official NWS values.
T = Trace of Precipitation, MM = Missing Value Source: NWS Daily Summary

Daily Weather History Graph

Daily Weather History Graph

Search for Another Location

Airport or City:

Trip Planner

Search our weather history database for the weather conditions in past years. The results will help you decide how hot, cold, wet, or windy it might be!

Date:

Astronomy

Dec. 25, 2014 Rise Set
Actual Time 7:44 AM CST 4:59 PM CST
Civil Twilight 7:13 AM CST 5:30 PM CST
Nautical Twilight 6:38 AM CST 6:05 PM CST
Astronomical Twilight 6:05 AM CST 6:38 PM CST
Moon 10:16 AM CST (12/25) 9:35 PM CST (12/25)
Length of Visible Light 10h 17m
Length of Day
9h 15m
Waxing Crescent, 18% of the Moon is Illuminated
Dec 25
Waxing Crescent
Dec 28
First Quarter
Jan 4
Full
Jan 13
Last Quarter
Jan 20
New

Hourly Weather History & Observations

Time (CST) Temp. Windchill Dew Point Humidity Pressure Visibility Wind Dir Wind Speed Gust Speed Precip Events Conditions
12:15 AM 30.2 °F 21.9 °F 28.4 °F 93% 29.72 in 10.0 mi SSE 9.2 mph - N/A   Clear
12:35 AM 30.2 °F 21.9 °F 28.4 °F 93% 29.72 in 10.0 mi South 9.2 mph - N/A   Clear
12:55 AM 30.2 °F 21.3 °F 30.2 °F 100% 29.72 in 10.0 mi South 10.4 mph - N/A   Clear
1:15 AM 30.2 °F 20.8 °F 30.2 °F 100% 29.72 in 10.0 mi SSE 11.5 mph - N/A   Clear
1:35 AM 30.2 °F 20.8 °F 28.4 °F 93% 29.72 in 10.0 mi SSE 11.5 mph - N/A   Clear
1:55 AM 30.2 °F 21.3 °F 28.4 °F 93% 29.71 in 10.0 mi SSE 10.4 mph - N/A   Clear
2:15 AM 30.2 °F 21.9 °F 28.4 °F 93% 29.72 in 10.0 mi South 9.2 mph - N/A   Clear
2:35 AM 30.2 °F 21.3 °F 28.4 °F 93% 29.72 in 10.0 mi South 10.4 mph - N/A   Clear
2:55 AM 30.2 °F 22.6 °F 28.4 °F 93% 29.72 in 10.0 mi South 8.1 mph - N/A   Clear
3:15 AM 30.2 °F 24.3 °F 28.4 °F 93% 29.71 in 10.0 mi South 5.8 mph - N/A   Clear
3:35 AM 32.0 °F 24.8 °F 28.4 °F 87% 29.71 in 10.0 mi South 8.1 mph - N/A   Clear
3:55 AM 32.0 °F 23.6 °F 28.4 °F 87% 29.71 in 10.0 mi South 10.4 mph - N/A   Clear
4:15 AM 32.0 °F 24.8 °F 28.4 °F 87% 29.71 in 10.0 mi South 8.1 mph - N/A   Clear
4:35 AM 32.0 °F 24.8 °F 28.4 °F 87% 29.70 in 10.0 mi South 8.1 mph - N/A   Clear
4:55 AM 32.0 °F 25.6 °F 28.4 °F 87% 29.70 in 10.0 mi South 6.9 mph - N/A   Clear
5:15 AM 32.0 °F 26.4 °F 28.4 °F 87% 29.69 in 10.0 mi South 5.8 mph - N/A   Clear
5:35 AM 32.0 °F 24.8 °F 28.4 °F 87% 29.69 in 10.0 mi South 8.1 mph - N/A   Clear
5:55 AM 32.0 °F 26.4 °F 28.4 °F 87% 29.69 in 10.0 mi SSW 5.8 mph - N/A   Clear
6:15 AM 33.8 °F 27.0 °F 28.4 °F 81% 29.69 in 10.0 mi South 8.1 mph 13.8 mph N/A   Clear
6:35 AM 32.0 °F 23.0 °F 28.4 °F 87% 29.68 in 10.0 mi South 11.5 mph - N/A   Clear
6:55 AM 33.8 °F 25.8 °F 28.4 °F 81% 29.69 in 10.0 mi South 10.4 mph 16.1 mph N/A   Clear
7:15 AM 33.8 °F 25.3 °F 28.4 °F 81% 29.69 in 10.0 mi South 11.5 mph - N/A   Clear
7:35 AM 32.0 °F 23.6 °F 28.4 °F 87% 29.70 in 10.0 mi South 10.4 mph - N/A   Clear
7:55 AM 32.0 °F 24.2 °F 28.4 °F 87% 29.69 in 10.0 mi South 9.2 mph - N/A   Clear
8:15 AM 33.8 °F 25.8 °F 28.4 °F 81% 29.69 in 10.0 mi SSE 10.4 mph - N/A   Clear
8:35 AM 33.8 °F 24.3 °F 28.4 °F 81% 29.70 in 10.0 mi SSE 13.8 mph - N/A   Clear
8:55 AM 35.6 °F 26.6 °F 28.4 °F 75% 29.70 in 10.0 mi SSE 13.8 mph - N/A   Clear
9:15 AM 35.6 °F 26.6 °F 28.4 °F 75% 29.71 in 10.0 mi South 13.8 mph 19.6 mph N/A   Clear
9:35 AM 35.6 °F 26.6 °F 28.4 °F 75% 29.72 in 10.0 mi South 13.8 mph 20.7 mph N/A   Clear
9:55 AM 37.4 °F 28.9 °F 30.2 °F 75% 29.73 in 10.0 mi South 13.8 mph 19.6 mph N/A   Clear
10:20 AM 37.4 °F 28.2 °F 30.2 °F 75% 29.73 in 10.0 mi South 16.1 mph - N/A   Clear
10:35 AM 39.2 °F 31.6 °F 32.0 °F 75% 29.73 in 10.0 mi South 12.7 mph 19.6 mph N/A   Clear
10:55 AM 41.0 °F 33.5 °F 32.0 °F 70% 29.72 in 10.0 mi South 13.8 mph - N/A   Clear
11:15 AM 41.0 °F 32.5 °F 32.0 °F 70% 29.71 in 10.0 mi SSE 17.3 mph - N/A   Clear
11:35 AM 42.8 °F 35.1 °F 32.0 °F 66% 29.70 in 10.0 mi SSE 16.1 mph 23.0 mph N/A   Clear
11:55 AM 42.8 °F 35.4 °F 32.0 °F 66% 29.69 in 10.0 mi SSE 15.0 mph - N/A   Clear
12:15 PM 44.6 °F 37.2 °F 32.0 °F 61% 29.67 in 10.0 mi South 17.3 mph 25.3 mph N/A   Clear
12:35 PM 44.6 °F 36.6 °F 33.8 °F 66% 29.66 in 10.0 mi South 19.6 mph 26.5 mph N/A   Clear
12:55 PM 46.4 °F 39.8 °F 33.8 °F 62% 29.64 in 10.0 mi SSE 16.1 mph 27.6 mph N/A   Clear
1:15 PM 48.2 °F - 33.8 °F 58% 29.62 in 10.0 mi SSE 15.0 mph 21.9 mph N/A   Clear
1:35 PM 50.0 °F - 33.8 °F 54% 29.61 in 10.0 mi SSE 17.3 mph 23.0 mph N/A   Clear
1:55 PM 50.0 °F - 33.8 °F 54% 29.61 in 10.0 mi South 25.3 mph 33.4 mph N/A   Clear
2:15 PM 50.0 °F - 33.8 °F 54% 29.61 in 10.0 mi South 21.9 mph 32.2 mph N/A   Clear
2:35 PM 51.8 °F - 33.8 °F 50% 29.62 in 10.0 mi South 20.7 mph 27.6 mph N/A   Clear
2:55 PM 51.8 °F - 33.8 °F 50% 29.62 in 10.0 mi South 24.2 mph 32.2 mph N/A   Clear
3:15 PM 51.8 °F - 33.8 °F 50% 29.62 in 10.0 mi South 21.9 mph 29.9 mph N/A   Clear
3:35 PM 51.8 °F - 33.8 °F 50% 29.63 in 10.0 mi South 21.9 mph - N/A   Clear
3:55 PM 50.0 °F - 33.8 °F 54% 29.63 in 10.0 mi South 18.4 mph 28.8 mph N/A   Clear
4:15 PM 50.0 °F - 33.8 °F 54% 29.63 in 10.0 mi South 15.0 mph 21.9 mph N/A   Clear
4:35 PM 48.2 °F - 33.8 °F 58% 29.64 in 10.0 mi South 11.5 mph 18.4 mph N/A   Clear
4:55 PM 46.4 °F 41.5 °F 33.8 °F 62% 29.65 in 10.0 mi SSE 10.4 mph - N/A   Clear
5:15 PM 46.4 °F 39.8 °F 33.8 °F 62% 29.65 in 10.0 mi SSE 16.1 mph - N/A   Clear
5:35 PM 46.4 °F 40.1 °F 33.8 °F 62% 29.66 in 10.0 mi SSE 15.0 mph - N/A   Clear
5:55 PM 46.4 °F 40.1 °F 33.8 °F 62% 29.67 in 10.0 mi South 15.0 mph 21.9 mph N/A   Clear
6:15 PM 46.4 °F 40.4 °F 33.8 °F 62% 29.67 in 10.0 mi SSE 13.8 mph - N/A   Clear
6:35 PM 44.6 °F 38.4 °F 33.8 °F 66% 29.68 in 10.0 mi SSE 12.7 mph - N/A   Clear
6:55 PM 44.6 °F 38.4 °F 33.8 °F 66% 29.69 in 10.0 mi South 12.7 mph - N/A   Clear
7:15 PM 44.6 °F 38.4 °F 33.8 °F 66% 29.70 in 10.0 mi South 12.7 mph - N/A   Clear
7:35 PM 44.6 °F 38.1 °F 33.8 °F 66% 29.70 in 10.0 mi South 13.8 mph - N/A   Clear
7:55 PM 44.6 °F 38.4 °F 33.8 °F 66% 29.70 in 10.0 mi SSE 12.7 mph 18.4 mph N/A   Clear
8:15 PM 42.8 °F 37.0 °F 33.8 °F 70% 29.71 in 10.0 mi SSE 10.4 mph - N/A   Clear
8:35 PM 42.8 °F 36.6 °F 33.8 °F 70% 29.72 in 10.0 mi SSE 11.5 mph - N/A   Clear
8:55 PM 42.8 °F 37.0 °F 32.0 °F 66% 29.72 in 10.0 mi SSE 10.4 mph - N/A   Clear
9:15 PM 41.0 °F 35.2 °F 32.0 °F 70% 29.72 in 10.0 mi SSE 9.2 mph - N/A   Clear
9:40 PM 41.0 °F 35.2 °F 32.0 °F 70% 29.73 in 10.0 mi SSE 9.2 mph - N/A   Clear
9:55 PM 41.0 °F 35.8 °F 32.0 °F 70% 29.73 in 10.0 mi SSE 8.1 mph - N/A   Clear
10:15 PM 41.0 °F 35.8 °F 32.0 °F 70% 29.73 in 10.0 mi SSE 8.1 mph - N/A   Clear
10:35 PM 41.0 °F 34.3 °F 32.0 °F 70% 29.74 in 10.0 mi SSE 11.5 mph - N/A   Clear
10:55 PM 42.8 °F 36.2 °F 32.0 °F 66% 29.74 in 10.0 mi SSE 12.7 mph - N/A   Clear
11:15 PM 42.8 °F 36.6 °F 32.0 °F 66% 29.75 in 10.0 mi SSE 11.5 mph - N/A   Clear
11:35 PM 41.0 °F 34.7 °F 32.0 °F 70% 29.75 in 10.0 mi SSE 10.4 mph - N/A   Clear
11:55 PM 41.0 °F 34.7 °F 32.0 °F 70% 29.75 in 10.0 mi SSE 10.4 mph - N/A   Clear